Weather observations for the past three days for
Columbus/West Point/Starkville, Golden Triangle Regional Airport
Imperial (Metric)
Date Time (cdt) Wind (mph) Vis. (mi.) Weather Sky Cond. Temperature (ºF) Relative Humidity Wind Chill (°F) Heat Index (°F) Pressure Precipitation (in)
Air Dwpt 6 hour altimeter (in) sea level (mb) 1 hr 3 hr 6 hr
Max. Min.
24 01:56 SW 3 10.00 Mostly Cloudy BKN100 82 75 79% 89 29.91 1013.2
24 00:56 SW 5 10.00 Overcast OVC100 82 75 93 81 79% 89 29.92 1013.5
23 22:56 W 3 10.00 Fair CLR 84 73.9 72% 91 29.91 1013.4
23 21:56 SW 3 10.00 Partly Cloudy SCT100 84.9 73.9 70% 92 29.9 1012.8
23 20:56 Calm 10.00 Fair CLR 87.1 73 63% 95 29.89 1012.4
23 19:56 W 3 10.00 Mostly Cloudy SCT060 BKN080 89.1 73 59% 97 29.88 1012.4
23 18:56 W 3 10.00 Partly Cloudy SCT060 SCT075 93 73 97 91.9 52% 102 29.88 1012.3
23 17:56 W 6 10.00 Mostly Cloudy SCT070 BKN085 93.9 72 49% 102 29.88 1012.3
23 16:56 SW 6 10.00 Fair CLR 95 72 47% 103 29.89 1012.7
23 15:56 SW 8 10.00 A Few Clouds FEW060 95 72 47% 103 29.9 1013.1
23 14:56 SW 7 10.00 Fair CLR 95 71.1 46% 102 29.93 1013.9
23 13:56 W 8 10.00 A Few Clouds FEW060 96.1 71.1 44% 104 29.95 1014.5
23 12:56 Vrbl 6 10.00 A Few Clouds FEW055 93.9 69.1 93.9 73 44% 99 29.97 1015.4
23 11:56 W 8 10.00 Fair CLR 91.9 71.1 51% 99 29.99 1016.0
23 10:56 NW 9 10.00 Fair CLR 91 71.1 52% 98 30 1016.2
23 09:56 W 7 10.00 Fair CLR 89.1 71.1 55% 95 30 1016.2
23 08:56 Vrbl 3 10.00 Fair CLR 84 71.1 65% 89 30 1016.3
23 07:56 SW 6 10.00 Fair CLR 80.1 69.1 69% 83 29.99 1016.2
23 06:56 S 3 10.00 Fair CLR 73 69.1 75.9 68 87% 29.99 1015.9
23 05:56 W 3 10.00 Fair CLR 72 68 87% 29.98 1015.6
23 04:56 S 6 10.00 Fair CLR 68 66 93% 29.98 1015.5
23 03:56 Calm 10.00 Fair CLR 69.1 66.9 93% 29.97 1015.4
23 02:56 Calm 10.00 Fair CLR 73 66.9 81% 29.97 1015.5
23 01:56 Calm 10.00 Fair CLR 73.9 66.9 79% 29.98 1015.8
23 00:56 W 3 10.00 Fair CLR 75.9 68 91.9 73 77% 77 30 1016.3
22 23:56 SW 3 10.00 Fair CLR 73.9 69.1 85% 30.01 1016.7
22 22:56 S 5 10.00 Fair CLR 78.1 68 71% 80 30.01 1016.7
22 21:56 Calm 9.00 Fair CLR 81 69.1 67% 84 30.01 1016.6
22 20:56 Calm 10.00 Fair CLR 84 68 59% 87 29.99 1015.9
22 19:56 SW 3 10.00 Fair CLR 89.1 66.9 48% 92 29.98 1015.6
22 18:56 S 5 10.00 Mostly Cloudy BKN075 90 70 97 88 52% 95 29.97 1015.4
22 17:56 SW 5 10.00 Partly Cloudy SCT080 93.9 64.9 38% 96 29.98 1015.5
22 16:56 SW 3 10.00 Fair CLR 93 66 41% 96 29.99 0.0
22 15:56 SW 6 10.00 A Few Clouds FEW080 96.1 63 34% 98 30 0.0
22 14:56 Calm 10.00 Partly Cloudy SCT080 95 63 35% 96 30.02 0.0
22 13:56 Vrbl 6 10.00 A Few Clouds FEW075 96.1 62.1 32% 97 30.04 0.0
22 12:56 Vrbl 3 10.00 Fair CLR 93.9 64.9 93.9 73 38% 96 30.07 0.0
22 11:56 Vrbl 5 10.00 Mostly Cloudy BKN060 93 66.9 42% 97 30.09 0.0
22 10:56 Vrbl 5 10.00 A Few Clouds FEW001 89.1 69.1 52% 94 30.1 0.0
22 09:56 Calm 10.00 Fair CLR 86 70 59% 91 30.11 0.0
22 08:56 Calm 10.00 Fair CLR 80.1 72 76% 84 30.12 0.0
22 07:56 Calm 10.00 Fair CLR 75.9 72 88% 76 30.12 0.0
22 06:56 Calm 10.00 Partly Cloudy SCT075 73 70 90% 30.12 0.0
22 05:56 Calm 10.00 Fair CLR 68 66.9 96% 30.12 0.0
22 03:56 Calm 10.00 Fair CLR 69.1 68 96% 30.11 1020.0
22 02:56 Calm 10.00 Fair CLR 70 68 93% 30.1 1019.6
22 01:56 Calm 10.00 Fair CLR 72 69.1 91% 30.1 1019.8
22 00:56 Calm 10.00 Fair CLR 73.9 69.1 91.9 73 85% 30.1 1019.9
21 23:56 Calm 10.00 Fair CLR 75 69.1 82% 75 30.11 1020.2
21 22:56 Calm 10.00 Fair CLR 75.9 69.1 79% 77 30.11 1020.2
21 21:56 Calm 10.00 Fair CLR 79 69.1 72% 82 30.11 1020.0
21 20:56 E 3 10.00 Fair CLR 81 70 69% 84 30.1 1019.7
21 19:56 NE 3 10.00 Fair CLR 86 70 59% 91 30.1 1019.6
21 18:56 N 6 10.00 Mostly Cloudy BKN070 BKN085 91 70 96.1 91 50% 97 30.1 1019.6
21 17:56 NE 7 10.00 Fair CLR 95 66 39% 98 30.09 1019.5
21 16:56 NE 6 10.00 Fair CLR 95 64.9 37% 98 30.11 1020.0
21 15:56 NE 10 10.00 Partly Cloudy SCT070 95 64.9 37% 98 30.12 1020.5
21 14:56 SE 5 10.00 Partly Cloudy SCT070 93.9 64 37% 96 30.14 1021.1
21 13:56 Calm 10.00 A Few Clouds FEW065 91.9 66 43% 95 30.17 1022.0
21 12:56 Vrbl 7 10.00 Fair CLR 93.9 66.9 95 72 41% 98 30.18 1022.6
21 11:56 NE 8 10.00 Mostly Cloudy BKN060 91 66.9 45% 94 30.2 1023.2
21 10:56 Vrbl 3 10.00 Partly Cloudy SCT055 91 66.9 45% 94 30.22 1023.8
21 09:56 E 6 10.00 Fair CLR 87.1 69.1 55% 91 30.23 1024.3
21 08:56 NE 5 10.00 Fair CLR 84 71.1 65% 89 30.23 1024.3
21 07:56 NE 6 10.00 Fair CLR 79 70 74% 82 30.23 1024.2
21 06:56 Calm 10.00 Partly Cloudy SCT080 72 69.1 72 68 91% 30.23 1024.0
21 05:56 Calm 10.00 Partly Cloudy SCT080 68 66.9 96% 30.22 1023.7
21 04:56 Calm 10.00 Mostly Cloudy BKN080 68 66.9 96% 30.21 1023.4
21 03:56 N 3 10.00 Fair CLR 70 68 93% 30.2 1023.1
21 02:56 N 3 10.00 Fair CLR 70 69.1 97% 30.2 1023.1
Date Time (cdt) Wind (mph) Vis. (mi.) Weather Sky Cond. Air Dwpt Max. Min. Relative Humidity Wind Chill (°F) Heat Index (°F) altimeter (in) sea level (mb) 1 hr 3 hr 6 hr
6 hour
Temperature (ºF) Pressure Precipitation (in)